Theta_e
345 346 350 352 351 353 350 350 351 351 351 351 351 350 352 352 351 350 345 350 349 348 351 353 353 351 351 352 353 352 354 355 354 351 345 349 350 348 350 352 352 352 352
345 347 346 352 350 352 350 349 349 350 351 352 353 353 353 353 352 352 348 352 352 352 351 351 351 352 349 350 349 346 349 351 346 352 353 345 346 345 343 349 350 349 347
348 348 348 349 353 351 350 348 352 353 353 353 353 353 352 353 353 354 353 353 352 351 351 351 352 351 350 351 348 343 343 344 340 341 348 352 350 346 347 345 344 348 350
347 348 349 349 351 352 352 351 351 353 352 351 353 353 352 352 353 353 352 350 350 348 348 350 351 351 350 350 350 346 339 340 339 347 350 348 348 342 346 350 349 349 351
345 348 352 350 349 353 352 351 351 351 353 352 348 349 350 352 353 353 351 353 351 352 352 352 350 347 347 349 347 345 339 335 338 349 349 348 348 342 340 343 340 345 345
347 350 348 352 354 352 348 349 351 350 349 351 354 353 353 352 351 350 350 349 350 348 347 348 352 353 348 340 339 342 341 339 337 350 347 342 349 341 340 341 349 349 345
346 350 351 351 352 351 349 351 352 351 350 348 348 349 346 345 344 343 344 342 341 343 345 346 349 353 352 351 346 341 338 338 345 347 348 348 349 337 341 340 345 348 344
345 345 347 348 350 350 351 352 352 348 340 337 338 341 342 341 342 342 341 342 343 345 347 348 350 352 353 353 352 348 345 337 347 344 345 346 350 341 340 342 342 342 345
345 348 347 345 352 345 344 348 344 340 345 345 343 342 340 341 340 340 340 340 341 343 345 346 347 348 349 349 348 348 348 347 349 348 344 347 348 345 346 344 341 340 343
345 344 345 347 348 348 347 337 340 346 344 342 341 341 344 345 349 349 350 352 351 345 344 344 346 348 347 347 346 346 346 346 351 349 346 350 349 347 346 346 346 344 341
345 346 347 348 349 351 350 347 341 340 339 342 351 353 352 356 355 357 358 353 351 350 350 350 349 348 348 346 344 344 345 352 354 351 349 349 349 347 346 347 346 345 343
346 347 348 348 349 349 348 350 352 348 353 356 356 356 356 356 356 353 355 349 347 348 347 346 346 347 349 355 356 350 354 353 352 351 348 350 349 344 345 347 346 344 344
345 346 347 348 348 348 347 348 348 351 354 356 358 358 357 356 356 356 358 357 358 357 356 357 356 357 357 356 354 355 355 351 351 347 349 350 347 344 346 348 346 345 345
344 345 346 348 350 348 348 350 349 350 351 351 356 359 359 359 356 356 355 354 350 351 355 356 354 355 353 356 354 354 354 353 352 351 352 351 349 345 345 347 346 346 346
343 344 345 348 351 352 356 353 353 352 351 352 353 357 358 355 355 356 356 356 355 354 353 354 355 357 355 354 355 355 356 354 351 350 355 340 351 346 347 346 343 345 345
342 344 346 348 352 355 356 357 356 354 355 353 354 358 360 359 357 355 356 356 355 355 357 357 361 359 356 351 353 349 348 347 344 342 343 354 347 344 345 348 345 342 341
342 344 347 348 351 356 358 358 356 355 353 353 355 356 358 360 362 358 357 359 356 357 355 356 356 355 356 351 349 349 346 343 343 346 349 353 354 349 342 346 345 344 342
342 345 347 347 350 355 356 357 355 354 355 354 353 355 357 359 361 361 357 357 355 360 354 351 350 351 352 350 349 348 347 346 346 351 355 359 354 348 342 337 343 343 345
344 347 348 348 349 352 355 356 355 357 352 354 352 353 359 355 356 358 356 359 358 357 355 355 352 353 352 350 347 345 346 347 348 350 354 355 353 349 346 342 339 345 343
345 346 349 351 351 353 354 357 356 355 355 352 350 352 355 356 355 356 358 356 357 352 355 357 358 357 357 355 349 347 348 348 351 352 352 351 351 350 348 346 340 339 336
348 348 349 351 352 353 354 355 354 353 353 353 352 354 355 354 354 357 354 354 355 354 358 359 358 354 353 357 353 345 346 350 349 347 344 346 347 343 343 338 337 337 336
347 349 350 351 352 354 353 353 353 354 355 354 355 357 355 356 355 356 358 356 358 356 361 362 359 359 355 360 354 354 357 348 346 343 331 328 340 339 337 336 336 335 336
347 348 350 352 352 354 351 352 353 356 357 355 351 350 355 358 357 357 359 361 361 361 354 363 355 361 356 355 358 352 351 350 345 339 332 328 333 337 337 337 337 341 341
346 347 349 352 354 354 354 351 353 355 356 356 355 352 358 357 358 358 360 363 363 360 357 357 358 362 357 357 356 355 351 349 347 340 332 330 331 335 338 336 337 340 341
345 346 347 352 354 354 355 353 352 356 355 355 350 358 359 358 359 357 357 362 363 362 358 361 361 360 360 357 354 354 354 350 346 339 337 334 333 335 337 338 340 337 337
345 346 347 351 356 356 355 356 354 357 356 357 353 353 352 351 357 358 358 360 361 362 361 360 359 359 358 358 355 355 354 354 355 342 336 334 334 336 337 337 338 336 337
Wind_Speed
15 13 13 12 12 12 12 11 12 12 13 14 15 16 15 14 14 14 14 14 13 12 12 10 11 12 12 12 11 11 11 13 12 11 11 12 11 10 12 12 11 11 13
18 15 14 13 11 11 11 10 10 10 10 11 12 12 12 11 11 10 10 10 10 10 9 8 9 9 8 9 9 8 9 10 10 9 10 11 10 9 11 10 14 11 12
19 15 13 14 11 10 10 8 8 7 8 9 9 10 10 9 9 9 9 8 9 8 6 7 7 6 5 5 5 5 6 6 6 6 5 8 8 8 8 9 8 9 9
18 17 13 14 11 10 9 8 7 7 7 8 8 9 8 7 7 7 7 7 6 6 4 5 4 4 3 2 1 1 2 3 4 5 2 6 9 8 8 8 8 8 8
17 21 15 13 11 10 8 8 6 7 8 7 8 8 8 7 6 6 5 4 3 4 4 3 3 2 1 1 1 1 1 1 2 3 2 1 6 8 8 8 6 6 8
16 20 15 13 11 9 9 8 8 6 7 7 6 6 6 4 3 3 2 2 2 2 1 1 2 1 2 2 2 3 3 4 5 8 0 2 6 8 7 8 7 7 7
15 15 13 12 11 9 8 7 6 5 5 5 4 3 2 1 1 1 0 1 2 2 2 2 2 2 3 4 4 4 5 5 7 3 4 5 8 5 7 8 8 8 8
13 17 12 11 10 9 8 6 5 4 3 3 2 1 1 2 2 2 3 3 4 4 4 4 3 4 4 5 6 5 6 5 7 6 7 8 6 5 7 7 9 11 9
11 18 14 12 9 7 7 6 4 4 3 2 2 2 3 3 3 3 3 3 4 4 4 5 5 5 6 6 7 8 8 8 10 11 10 10 10 8 7 8 9 10 11
9 10 12 11 10 8 6 5 5 5 4 3 3 2 2 3 3 2 1 4 4 4 5 6 6 6 7 7 8 9 9 10 13 12 11 7 10 8 9 10 10 11 11
11 10 9 11 9 5 8 6 4 3 4 4 2 0 6 5 5 8 7 6 7 6 6 7 7 7 9 10 10 9 10 13 16 16 16 16 13 12 13 12 11 13 13
13 12 11 10 10 9 8 6 7 6 5 5 2 1 7 3 2 3 4 4 5 6 7 6 6 9 13 13 14 12 13 16 22 19 14 15 12 13 14 14 13 15 14
13 12 12 9 9 10 9 8 8 7 9 7 5 4 3 2 1 5 8 5 4 6 8 12 13 11 12 14 9 14 16 15 14 16 12 14 12 14 14 15 16 17 15
13 12 12 11 10 8 9 6 5 4 3 3 4 2 3 4 2 3 3 3 3 5 4 6 0 6 5 7 7 11 15 15 13 16 20 16 16 16 16 16 15 16 15
13 12 13 13 12 9 5 5 3 3 6 2 4 3 2 3 2 1 2 3 3 2 5 4 4 4 5 8 8 9 15 17 16 18 13 18 15 14 18 12 11 12 10
13 14 13 13 13 10 7 5 5 5 5 5 5 3 1 3 2 1 2 4 1 2 9 7 11 9 9 12 6 11 12 17 19 18 20 13 9 11 16 8 12 11 10
15 14 15 14 13 11 8 7 6 10 4 3 6 5 0 2 1 2 4 6 3 5 6 5 4 4 9 9 10 9 13 16 18 16 14 4 7 13 14 2 12 8 17
15 14 15 14 14 11 8 7 9 6 4 5 3 5 4 2 2 5 5 8 6 5 5 6 3 5 9 9 7 11 10 14 15 11 11 9 6 10 5 16 16 14 13
14 15 14 13 11 11 9 8 7 2 4 3 4 6 8 4 3 4 1 3 4 7 3 1 6 4 4 8 12 9 9 10 10 11 9 7 6 7 7 12 13 10 10
16 16 15 13 11 9 9 8 8 6 9 7 6 4 2 7 2 4 2 2 5 8 6 7 5 7 6 4 11 6 6 3 6 8 8 6 4 6 6 7 7 8 9
17 17 17 15 13 11 12 12 12 13 13 4 11 3 3 4 4 3 6 1 3 3 3 4 6 7 9 1 7 9 10 7 9 8 8 17 4 1 0 4 9 11 11
19 18 18 17 16 15 13 12 8 8 8 7 8 6 3 4 3 5 2 4 0 6 6 5 6 8 12 4 2 5 3 4 6 6 4 15 21 16 11 7 9 12 12
22 22 21 20 19 18 17 12 9 9 7 6 10 9 12 6 5 5 5 7 6 7 13 5 12 8 12 13 5 5 3 4 1 6 7 10 16 20 13 11 12 14 15
23 23 22 22 21 20 18 16 13 14 15 7 4 4 7 5 7 7 8 10 9 11 14 13 11 11 13 16 8 10 12 8 4 3 6 14 10 18 10 15 12 11 9
23 23 23 23 22 21 21 20 16 16 13 11 9 6 3 6 9 10 8 8 10 12 14 13 14 12 15 15 19 13 12 11 12 5 4 3 6 12 12 10 6 11 9
22 22 22 24 24 24 22 20 17 14 16 12 9 8 11 15 16 15 7 8 12 14 16 15 16 17 16 16 18 20 16 15 17 7 3 2 6 8 8 6 5 7 5
Wind_Direction
126 131 127 119 123 118 112 98 89 81 78 77 80 85 89 93 98 104 109 101 103 99 99 95 86 77 79 80 83 82 85 87 86 91 97 100 104 104 110 104 103 105 111
131 134 133 127 126 121 112 104 95 87 84 82 81 84 91 95 99 102 97 92 97 97 102 99 88 86 92 91 88 95 94 95 93 103 108 101 113 114 123 99 115 125 129
133 136 136 130 124 123 119 112 99 91 88 88 85 85 92 95 96 95 93 92 91 98 101 100 99 97 99 103 107 88 85 93 99 106 139 160 113 121 117 120 121 120 127
130 141 138 133 133 131 127 120 110 92 93 87 86 87 89 86 83 79 76 79 88 98 101 96 97 96 93 106 119 114 105 103 90 121 309 123 129 128 134 122 129 140 137
142 129 131 131 132 130 124 122 112 114 99 97 92 97 93 93 91 84 87 96 96 79 61 60 67 77 102 137 191 233 249 225 134 236 206 207 104 139 140 138 136 150 148
131 118 136 134 131 132 130 121 127 122 113 103 95 88 83 77 75 94 91 58 35 30 39 13 27 4 344 295 263 251 247 251 235 267 59 156 94 138 153 149 143 168 168
135 121 136 138 135 143 131 136 142 132 123 120 122 108 93 107 194 202 251 277 287 298 283 270 268 261 258 271 263 261 260 257 259 269 194 226 149 160 159 164 177 177 178
132 133 140 150 149 146 150 144 143 151 157 152 147 112 173 227 246 249 243 249 254 257 263 261 251 249 249 255 265 265 263 251 252 234 220 214 184 180 178 183 182 186 189
149 127 144 150 155 160 165 172 173 168 161 161 163 206 230 226 228 236 240 245 251 253 261 266 261 253 248 248 254 259 259 259 254 251 223 215 197 196 197 200 199 201 199
141 136 138 150 160 165 169 177 176 180 190 183 172 194 208 198 189 177 260 277 286 273 268 264 258 254 255 250 244 247 250 251 237 231 223 199 185 203 207 207 213 205 209
152 150 154 147 152 144 164 163 170 172 162 147 146 41 271 247 228 226 216 268 278 277 270 268 265 257 249 243 227 230 239 241 229 237 213 212 212 225 216 213 218 212 213
161 160 151 171 152 164 168 130 185 175 187 215 220 207 270 227 219 253 205 283 278 265 264 242 249 250 246 250 234 219 228 238 235 217 214 199 222 226 218 216 216 207 209
163 164 150 165 162 159 143 162 171 167 194 178 184 233 304 281 240 280 230 236 218 251 254 238 224 217 253 246 217 222 241 241 256 246 210 218 221 220 222 217 209 202 204
161 162 162 158 167 154 156 172 152 206 180 224 101 223 261 269 231 321 308 338 295 242 300 257 218 296 302 280 277 283 266 272 266 274 235 220 224 221 212 209 205 203 205
163 161 163 158 165 166 187 166 243 222 210 244 176 176 280 334 40 301 332 286 297 267 265 261 319 325 320 257 257 264 295 295 289 276 223 307 246 273 217 191 212 203 219
168 166 162 168 169 173 181 187 221 233 201 209 150 154 184 328 78 356 224 251 268 284 5 347 343 328 311 303 290 327 305 294 301 307 303 225 215 220 268 196 200 208 222
172 172 166 172 173 179 187 200 220 244 249 171 148 148 212 282 143 279 249 205 51 10 322 276 335 257 270 322 313 300 312 322 315 327 319 9 47 146 187 353 236 214 234
173 176 173 182 173 185 194 206 241 256 238 201 180 172 153 218 259 267 295 270 41 258 68 334 16 1 352 326 318 299 328 323 334 335 346 339 347 149 220 203 216 200 203
175 178 186 186 184 190 200 216 226 163 229 240 205 213 139 228 209 274 250 44 348 289 153 3 350 4 346 323 314 341 328 322 352 344 345 345 73 133 175 202 209 197 213
176 182 190 193 200 199 207 219 242 221 238 216 214 172 40 265 207 269 213 39 316 318 30 18 317 322 284 326 324 334 281 315 41 24 5 19 81 117 133 170 214 215 209
184 187 190 194 193 202 205 211 209 222 216 242 251 129 270 246 216 237 278 114 242 243 329 305 304 304 302 303 320 322 289 177 143 108 39 338 327 75 167 235 255 261 248
191 194 196 202 202 205 210 223 250 273 310 200 293 119 240 195 206 230 299 313 95 312 225 239 281 301 296 214 267 289 293 191 158 154 292 328 295 306 318 312 288 277 261
200 197 200 204 204 207 223 214 228 253 268 251 217 216 191 198 243 253 266 273 300 282 287 220 296 244 296 306 224 244 278 259 301 235 227 277 294 279 298 302 298 288 258
203 202 203 204 206 206 210 224 211 221 225 277 218 137 145 207 245 268 270 269 267 285 295 282 293 322 299 287 265 269 255 250 269 292 237 269 289 276 270 304 287 288 289
202 202 201 202 205 210 202 214 213 226 233 238 221 141 224 248 235 253 269 270 266 271 294 311 293 294 296 285 284 255 263 266 254 249 302 340 273 285 276 283 264 293 288
204 203 199 190 198 203 201 210 221 219 237 269 219 244 236 237 214 208 226 265 274 283 289 296 305 296 292 293 291 299 267 270 292 220 253 234 248 294 282 269 301 304 300